This is the latest recevied weather packets stored in our database for station/object HOWARD. If no packets are shown the sender has not sent any weather packets the latest 10 day(s).
| Time | Temp. | Humidity | Pressure | Rain* | Wind** | Luminosity | Snow |
|---|---|---|---|---|---|---|---|
| 1788163481 | 7.78° C | 35% | 1016.2 hPa | 0 mm | - | - | - |
| 1788162881 | 7.78° C | 36% | 1016.4 hPa | 0 mm | - | - | - |
| 1788162281 | 7.78° C | 37% | 1016.7 hPa | 0 mm | - | - | - |
| 1788161681 | 8.33° C | 40% | 1016.8 hPa | 0 mm | - | - | - |
| 1788161081 | 8.33° C | 37% | 1016.9 hPa | 0 mm | - | - | - |
| 1788160485 | 8.33° C | 35% | 1016.8 hPa | 0 mm | - | - | - |
| 1788159881 | 8.33° C | 34% | 1017 hPa | 0 mm | - | - | - |
| 1788159281 | 8.33° C | 36% | 1017.1 hPa | 0 mm | - | - | - |
| 1788158681 | 8.33° C | 35% | 1017 hPa | 0 mm | - | - | - |
| 1788158081 | 8.33° C | 36% | 1017.1 hPa | 0 mm | - | - | - |
| 1788157481 | 8.89° C | 38% | 1017.1 hPa | 0 mm | - | - | - |
| 1788156882 | 8.33° C | 39% | 1017.1 hPa | 0 mm | - | - | - |
| 1788156281 | 8.89° C | 40% | 1017.1 hPa | 0 mm | - | - | - |
| 1788155681 | 7.78° C | 44% | 1017.2 hPa | 0 mm | - | - | - |
| 1788155081 | 7.78° C | 45% | 1016.9 hPa | 0 mm | - | - | - |
| 1788154481 | 8.33° C | 46% | 1016.9 hPa | 0 mm | - | - | - |
| 1788153881 | 8.33° C | 48% | 1016.9 hPa | 0 mm | - | - | - |
| 1788153281 | 8.33° C | 49% | 1017 hPa | 0 mm | - | - | - |
| 1788152681 | 8.33° C | 50% | 1017.1 hPa | 0 mm | - | - | - |
| 1788152081 | 8.33° C | 49% | 1017 hPa | 0 mm | - | - | - |
| 1788151481 | 7.78° C | 52% | 1017.1 hPa | 0 mm | - | - | - |
| 1788150881 | 8.33° C | 53% | 1017 hPa | 0 mm | - | - | - |
| 1788150281 | 7.78° C | 55% | 1017.1 hPa | 0 mm | - | - | - |
| 1788149681 | 7.78° C | 58% | 1017.2 hPa | 0 mm | - | - | - |
| 1788149080 | 7.78° C | 59% | 1017.2 hPa | 0 mm | - | - | - |
* Rain latest hour (hover to see other rain measurements)
** Current wind speed in m/s (hover to see current wind gust speed)